GW1905 Weather Reports


time (UTC)temp
C
wind
direction
speed
KPH
gust
KPH
rain 1hr
cm
rain 24hr
cm
rain mn
cm
humidity
%
barometer
mb
20260504041700 10 187 0.0 0.0 0.00 0.03 0.03 70 1018.3
20260504041156 10 187 0.0 0.0 0.00 0.03 0.03 68 1018.2
20260504040653 10 172 1.6 3.2 0.00 0.03 0.03 67 1018.2
20260504040150 9 190 0.0 1.6 0.00 0.03 0.03 72 1018.3
20260504035647 9 183 0.0 0.0 0.00 0.03 0.03 72 1018.3
20260504035144 9 183 0.0 0.0 0.00 0.03 0.03 72 1018.4
20260504034641 9 183 0.0 0.0 0.00 0.03 0.03 72 1018.5
20260504034138 10 183 0.0 0.0 0.00 0.03 0.03 71 1018.5
20260504033636 10 183 0.0 0.0 0.00 0.03 0.03 69 1018.4
20260504033133 10 183 0.0 0.0 0.00 0.03 0.03 70 1018.5
20260504032630 10 183 0.0 0.0 0.00 0.03 0.03 71 1018.3
20260504032127 11 183 0.0 0.0 0.00 0.03 0.03 68 1018.5
20260504031624 11 183 0.0 0.0 0.00 0.03 0.03 66 1018.5
20260504031120 11 183 0.0 0.0 0.00 0.03 0.03 63 1018.4
20260504030617 12 183 0.0 0.0 0.00 0.03 0.03 61 1018.3
20260504030114 12 179 1.6 1.6 0.00 0.03 0.03 59 1018.5
20260504025610 12 187 1.6 3.2 0.00 0.03 0.03 60 1018.2
20260504025107 12 204 1.6 3.2 0.00 0.03 0.03 59 1018.3
20260504024605 12 162 1.6 3.2 0.00 0.03 0.03 58 1018.1
20260504024101 12 173 1.6 1.6 0.00 0.03 0.03 58 1018.2
20260504023557 13 206 0.0 1.6 0.00 0.03 0.03 56 1018.2
20260504023054 13 195 0.0 1.6 0.00 0.03 0.03 56 1018.2
20260504022550 13 215 0.0 3.2 0.00 0.03 0.03 55 1018.1
20260504022046 13 196 0.0 1.6 0.00 0.03 0.03 55 1018.0
20260504021544 13 176 3.2 4.8 0.00 0.03 0.03 56 1017.9
20260504021041 13 182 1.6 8.0 0.00 0.03 0.03 55 1018.0
20260504020537 13 174 3.2 4.8 0.00 0.03 0.03 56 1018.0
20260504020034 12 219 1.6 3.2 0.00 0.03 0.03 59 1018.0
20260504015530 12 196 1.6 1.6 0.00 0.03 0.03 58 1018.1
20260504015026 12 184 0.0 1.6 0.00 0.03 0.03 60 1018.2
20260504014523 13 184 1.6 1.6 0.00 0.03 0.03 59 1018.2
20260504014020 13 178 0.0 1.6 0.00 0.03 0.03 58 1018.1
20260504013518 13 181 0.0 1.6 0.00 0.03 0.03 57 1018.1
20260504013014 13 169 0.0 0.0 0.00 0.03 0.03 55 1018.1
20260504012512 13 158 0.0 0.0 0.00 0.03 0.03 55 1017.9
20260504012010 13 184 0.0 0.0 0.00 0.03 0.03 55 1017.8
20260504011506 14 178 1.6 3.2 0.00 0.03 0.03 54 1017.6
20260504011002 14 196 0.0 1.6 0.00 0.03 0.03 53 1017.9
20260504010458 14 201 1.6 3.2 0.00 0.03 0.03 52 1017.8
20260504005954 14 187 1.6 3.2 0.00 0.03 0.03 51 1017.8
20260504005451 14 198 0.0 0.0 0.00 0.03 0.03 52 1017.8
20260504004949 15 186 0.0 1.6 0.00 0.03 0.03 51 1017.8
20260504004446 15 182 0.0 1.6 0.00 0.03 0.03 51 1017.7
20260504003943 15 181 0.0 1.6 0.00 0.03 0.03 50 1017.7
20260504003439 15 177 0.0 0.0 0.00 0.03 0.03 50 1017.6
20260504002936 15 169 1.6 3.2 0.00 0.03 0.03 49 1017.6
20260504002433 15 181 0.0 1.6 0.00 0.03 0.03 49 1017.5
20260504001930 16 185 1.6 3.2 0.00 0.03 0.03 48 1017.7
20260504001428 16 156 1.6 3.2 0.00 0.03 0.03 48 1017.9
20260504000924 16 243 0.0 3.2 0.00 0.03 0.03 46 1017.7
20260504000423 16 178 4.8 4.8 0.00 0.03 0.03 46 1017.9
20260503235918 16 184 0.0 4.8 0.00 0.03 0.03 45 1017.7
20260503235416 16 173 1.6 3.2 0.00 0.03 0.03 45 1017.5
20260503234914 17 188 3.2 4.8 0.00 0.03 0.03 45 1017.8
20260503234411 17 340 1.6 3.2 0.00 0.03 0.03 44 1017.8
20260503233909 17 267 1.6 3.2 0.00 0.03 0.03 43 1017.9
20260503233405 17 222 3.2 4.8 0.00 0.03 0.03 43 1018.0
20260503232901 17 143 1.6 3.2 0.00 0.03 0.03 43 1018.2
20260503232359 18 183 3.2 3.2 0.00 0.03 0.03 41 1018.0
20260503231856 18 143 1.6 3.2 0.00 0.03 0.03 41 1018.2
20260503231353 17 154 1.6 8.0 0.00 0.03 0.03 42 1018.3
20260503230849 17 168 1.6 4.8 0.00 0.03 0.03 41 1018.1
20260503230346 17 354 1.6 8.0 0.00 0.03 0.03 40 1018.6
20260503225844 18 95 1.6 1.6 0.00 0.03 0.03 41 1018.9
20260503225340 18 161 1.6 1.6 0.00 0.03 0.03 41 1019.0
20260503224836 18 160 0.0 4.8 0.00 0.03 0.03 39 1019.0
20260503224334 18 192 3.2 4.8 0.00 0.03 0.03 40 1018.9
20260503223831 17 177 3.2 9.7 0.00 0.03 0.03 39 1019.0
20260503223329 17 68 1.6 3.2 0.00 0.03 0.03 40 1019.2
20260503222824 18 179 3.2 4.8 0.00 0.03 0.03 41 1019.3
20260503222323 18 120 1.6 3.2 0.00 0.03 0.03 40 1019.1
20260503221821 18 265 3.2 4.8 0.00 0.03 0.03 41 1019.1
20260503221320 18 349 1.6 1.6 0.00 0.03 0.03 42 1019.3
20260503220815 18 239 0.0 4.8 0.00 0.03 0.03 41 1019.3
20260503220312 18 346 3.2 4.8 0.00 0.03 0.03 40 1019.5
20260503215809 17 155 0.0 4.8 0.00 0.03 0.03 40 1019.6
20260503215306 18 176 1.6 4.8 0.00 0.03 0.03 41 1019.6
20260503214804 17 184 1.6 8.0 0.00 0.03 0.03 40 1019.5
20260503214300 17 157 1.6 4.8 0.00 0.03 0.03 40 1019.7
20260503213758 17 321 1.6 4.8 0.00 0.03 0.03 39 1019.9
20260503213255 18 127 0.0 4.8 0.00 0.03 0.03 41 1019.8
20260503212752 18 151 0.0 1.6 0.00 0.03 0.03 43 1020.0
20260503212250 18 273 3.2 8.0 0.00 0.03 0.03 38 1020.0
20260503211747 18 242 0.0 8.0 0.00 0.03 0.03 38 1020.0
20260503211243 18 168 1.6 3.2 0.00 0.03 0.03 43 1020.0
20260503210738 18 323 1.6 4.8 0.00 0.03 0.03 39 1020.1
20260503210236 18 289 3.2 4.8 0.00 0.03 0.03 40 1020.5
20260503205731 18 158 0.0 9.7 0.00 0.03 0.03 43 1020.3
20260503205228 19 172 0.0 3.2 0.00 0.03 0.03 41 1020.2
20260503204724 18 264 3.2 8.0 0.00 0.03 0.03 41 1020.5
20260503204222 18 312 4.8 11.3 0.00 0.03 0.03 39 1020.5
20260503203719 18 356 1.6 3.2 0.00 0.03 0.03 40 1020.7
20260503203217 19 270 0.0 1.6 0.00 0.03 0.03 40 1020.8
20260503202714 18 198 4.8 4.8 0.00 0.03 0.03 40 1021.0
20260503202212 19 200 4.8 9.7 0.00 0.03 0.03 40 1021.0
20260503201709 19 181 1.6 4.8 0.00 0.03 0.03 43 1021.1
20260503201207 20 249 1.6 3.2 0.00 0.03 0.03 41 1021.2
20260503200703 19 180 1.6 3.2 0.00 0.03 0.03 46 1021.4
20260503200159 19 135 3.2 11.3 0.00 0.03 0.03 41 1021.5
20260503195656 18 179 3.2 4.8 0.00 0.03 0.03 42 1021.5
20260503195153 18 166 3.2 4.8 0.00 0.03 0.03 42 1021.8
20260503194650 18 176 6.4 8.0 0.00 0.03 0.03 44 1021.9
20260503194145 18 322 1.6 4.8 0.00 0.03 0.03 39 1022.0
20260503193643 18 201 3.2 8.0 0.00 0.03 0.03 42 1022.2
20260503193138 18 263 1.6 1.6 0.00 0.03 0.03 42 1022.1
20260503192634 18 168 4.8 8.0 0.00 0.03 0.03 44 1022.1
20260503192130 17 195 1.6 4.8 0.00 0.03 0.03 46 1022.1
20260503191627 18 191 4.8 9.7 0.00 0.03 0.03 44 1022.2
20260503191124 18 170 4.8 11.3 0.00 0.03 0.03 44 1022.2
20260503190621 18 212 0.0 8.0 0.00 0.03 0.03 46 1022.3
20260503190118 18 95 3.2 3.2 0.00 0.03 0.03 47 1022.3
20260503185614 18 191 4.8 8.0 0.00 0.03 0.03 44 1022.5
20260503185115 18 170 6.4 8.0 0.00 0.03 0.03 43 1022.5
20260503184610 18 206 6.4 8.0 0.00 0.03 0.03 44 1022.7
20260503184107 18 288 1.6 4.8 0.00 0.03 0.03 39 1022.7
20260503183603 17 107 0.0 9.7 0.00 0.03 0.03 44 1022.8
20260503183101 17 261 0.0 3.2 0.00 0.03 0.03 41 1022.7
20260503182559 16 328 1.6 1.6 0.00 0.03 0.03 44 1022.9
20260503182057 17 33 3.2 8.0 0.00 0.03 0.03 41 1023.0
20260503181553 16 148 3.2 4.8 0.00 0.03 0.03 46 1023.0
20260503181050 17 173 3.2 4.8 0.00 0.03 0.03 38 1023.4
20260503180547 17 139 3.2 3.2 0.00 0.03 0.03 43 1023.2
20260503180044 17 98 1.6 8.0 0.00 0.03 0.03 41 1023.2
20260503175541 17 308 3.2 11.3 0.00 0.03 0.03 44 1023.1
20260503175039 17 140 1.6 3.2 0.00 0.03 0.03 45 1023.4
20260503174536 16 182 4.8 9.7 0.00 0.03 0.03 41 1023.4
20260503174032 16 160 4.8 11.3 0.00 0.03 0.03 45 1023.4
20260503173527 16 228 1.6 11.3 0.00 0.03 0.03 40 1023.5
20260503173024 16 186 1.6 3.2 0.00 0.03 0.03 43 1023.6
20260503172521 16 171 0.0 4.8 0.00 0.03 0.03 50 1023.6
20260503172018 16 161 1.6 3.2 0.00 0.03 0.03 48 1023.7
20260503171515 15 135 3.2 4.8 0.00 0.03 0.03 52 1023.8
20260503171012 16 77 3.2 8.0 0.00 0.03 0.03 41 1024.0
20260503170508 16 173 0.0 4.8 0.00 0.03 0.03 44 1024.1
20260503150901 13 308 3.2 3.2 0.00 0.03 0.03 51 1024.8
20260503150357 13 113 0.0 3.2 0.00 0.03 0.03 55 1024.8
20260503131250 7 116 1.6 1.6 0.00 0.03 0.03 97 1024.8
20260503130748 7 96 1.6 3.2 0.00 0.03 0.03 99 1024.6
20260503130245 7 136 1.6 3.2 0.00 0.03 0.03 99 1024.4
20260503120211 3 188 0.0 0.0 0.00 0.03 0.03 99 1024.4
20260503110638 1 188 0.0 0.0 0.00 0.00 0.00 99 1023.6
20260503110136 1 188 0.0 0.0 0.00 0.00 0.00 99 1023.6
20260503081452 3 188 0.0 0.0 0.00 0.00 0.00 99 1023.2
20260503080949 3 188 0.0 0.0 0.00 0.00 0.00 99 1023.1
20260503080445 3 187 0.0 0.0 0.00 0.00 0.00 99 1022.9
20260503072922 3 187 0.0 0.0 0.00 0.00 0.00 99 1022.8
20260503072419 3 187 0.0 0.0 0.00 0.00 0.00 99 1023.0
20260503071916 3 188 0.0 0.0 0.00 0.00 0.00 99 1022.7
20260503071413 3 188 0.0 0.0 0.00 0.00 0.00 99 1022.9
20260503070909 4 187 0.0 0.0 0.00 0.00 0.00 99 1022.8
20260503070407 4 188 0.0 0.0 0.00 0.00 0.00 99 1022.7
20260503060332 5 187 0.0 0.0 0.00 0.00 0.00 99 1022.7
20260503054820 5 187 0.0 0.0 0.00 0.00 0.00 99 1022.8
20260503054316 5 187 0.0 0.0 0.00 0.00 0.00 99 1022.8
20260503053814 5 187 0.0 0.0 0.00 0.00 0.00 99 1022.9
20260503053312 5 187 0.0 0.0 0.00 0.00 0.00 99 1022.8
20260503052808 5 187 0.0 0.0 0.00 0.00 0.00 99 1022.7
20260503052306 5 187 0.0 0.0 0.00 0.00 0.00 99 1022.8
20260503051801 5 188 0.0 0.0 0.00 0.00 0.00 99 1022.7
20260503051258 6 188 0.0 0.0 0.00 0.00 0.00 99 1022.6
20260503050754 6 188 0.0 0.0 0.00 0.00 0.00 99 1022.6
20260503050250 6 188 0.0 0.0 0.00 0.00 0.00 99 1022.5
20260503045748 5 188 0.0 0.0 0.00 0.69 0.69 99 1022.6
20260503045246 5 187 0.0 0.0 0.00 0.69 0.69 99 1022.5
20260503044742 5 188 0.0 0.0 0.00 0.69 0.69 99 1022.4
20260503044239 5 188 0.0 0.0 0.00 0.69 0.69 99 1022.7
20260503043736 5 188 0.0 0.0 0.00 0.69 0.69 99 1022.5
20260503043233 5 188 0.0 0.0 0.00 0.69 0.69 99 1022.4
20260503042729 6 187 0.0 0.0 0.00 0.69 0.69 99 1022.3
20260503042226 6 187 0.0 0.0 0.00 0.69 0.69 99 1022.4